This is the latest recevied weather packets stored in our database for station/object AJ5AG. If no packets are shown the sender has not sent any weather packets the latest 10 day(s).
| Time | Temp. | Humidity | Pressure | Rain* | Wind** | Luminosity | Snow |
|---|---|---|---|---|---|---|---|
| 1777585459 | 19.44° C | 91% | 1012 hPa | 0 mm | - | 160 W/m² | - |
| 1777585155 | 19.44° C | 91% | 1011.8 hPa | 0 mm | - | 139 W/m² | - |
| 1777584851 | 19.44° C | 92% | 1011.8 hPa | 0 mm | - | 144 W/m² | - |
| 1777584549 | 19.44° C | 93% | 1012.1 hPa | 0 mm | - | 112 W/m² | - |
| 1777584245 | 19.44° C | 93% | 1012 hPa | 0 mm | - | 159 W/m² | - |
| 1777583945 | 19.44° C | 93% | 1012.2 hPa | 0 mm | - | 145 W/m² | - |
| 1777583641 | 19.44° C | 94% | 1013.1 hPa | 0 mm | - | 141 W/m² | - |
| 1777583340 | 18.89° C | 94% | 1013.3 hPa | 0 mm | - | 142 W/m² | - |
| 1777583035 | 19.44° C | 94% | 1013.8 hPa | 0 mm | - | 94 W/m² | - |
| 1777582732 | 19.44° C | 94% | 1014.4 hPa | 0 mm | - | 43 W/m² | - |
| 1777582427 | 19.44° C | 94% | 1014.7 hPa | 0 mm | - | 58 W/m² | - |
| 1777582121 | 19.44° C | 94% | 1014.7 hPa | 0 mm | - | 103 W/m² | - |
| 1777581820 | 19.44° C | 95% | 1014.6 hPa | 0 mm | - | 79 W/m² | - |
| 1777581519 | 19.44° C | 95% | 1014.5 hPa | 0 mm | - | 66 W/m² | - |
| 1777581216 | 19.44° C | 95% | 1014.7 hPa | 0 mm | - | 65 W/m² | - |
| 1777580915 | 19.44° C | 95% | 1015.2 hPa | 0 mm | - | 70 W/m² | - |
| 1777580615 | 19.44° C | 95% | 1015.1 hPa | 0 mm | - | 73 W/m² | - |
| 1777580311 | 19.44° C | 94% | 1014.9 hPa | 0 mm | - | 70 W/m² | - |
| 1777580008 | 19.44° C | 95% | 1014.7 hPa | 0 mm | - | 52 W/m² | - |
| 1777579703 | 19.44° C | 95% | 1014.6 hPa | 0 mm | - | 83 W/m² | - |
| 1777579403 | 19.44° C | 95% | 1014.7 hPa | 0 mm | - | 175 W/m² | - |
| 1777579098 | 19.44° C | 96% | 1014.8 hPa | 0 mm | - | 75 W/m² | - |
| 1777578797 | 19.44° C | 96% | 1014.8 hPa | 0 mm | - | 57 W/m² | - |
| 1777578493 | 19.44° C | 96% | 1014.7 hPa | 0 mm | - | 91 W/m² | - |
| 1777578188 | 19.44° C | 96% | 1014.7 hPa | 0 mm | - | 66 W/m² | - |
* Rain latest hour (hover to see other rain measurements)
** Current wind speed in m/s (hover to see current wind gust speed)